Hourly Weather Roundup
Issued by NWS Central Illinois

Home | Current Version | Previous Version | Text Only | Print | Product List | Glossary On
Versions: 1 2 3 4 5 6 7 8 9 10 11 12 13 14 15 16 17 18 19 20 21 22 23 24 25 26 27 28 29 30 31 32 33 34 35 36 37 38 39 40 41 42 43 44 45 46 47 48 49 50
010
NZUS43 KILX 200710
HWRILX

AREA WEATHER ROUNDUP
NATIONAL WEATHER SERVICE, LINCOLN IL
100 AM CST MON FEB 20 2017


CITY           SKY/WX    TMP DP  RH WIND       PRES   REMARKS
BLOOMINGTON    CLOUDY    47  45  93 S9        30.10S FOG
CHAMPAIGN      FOG       48  47  96 S9        30.12S VSB 1/4
DECATUR        FOG       48  48 100 S10       30.11R VSB 1/4
EFFINGHAM      FOG       50  50 100 E9        30.14S VSB 3/4
FLORA          FOG       48  48  99 CALM      30.13S VSB 1/4
GALESBURG      MOCLDY    52  48  88 SE7         N/A
JACKSONVILLE   CLOUDY    54  51  90 SE10      30.04F
LACON          PTCLDY    49  47  95 SE5       30.06F FOG
LAWRENCEVILLE  FOG       42  41  96 E5        30.14S VSB 1/4
LITCHFIELD     FOG       50  50 100 SE12      30.07F VSB 1/2
$$


CITY           SKY/WX    TMP DP  RH WIND       PRES   REMARKS
LINCOLN        LGT RAIN  48  48 100 S12       30.08F VSB 1/2
MACOMB         PTCLDY    51  48  92 SE7       30.04S
MATTOON        FOG       49  49 100 S12       30.12R VSB 1/4
MT CARMEL AP   FOG       42  41  97 CALM      30.14R VSB 1/4
OLNEY-NOBLE AP FOG       43  43 100 CALM      30.14R VSB 1/4
PARIS          MOCLDY    45  45 100 SE6       30.14S FOG
PEORIA         CLOUDY    52  49  89 SE8       30.06F
PONTIAC        PTCLDY    44  44  99 SE6       30.11R FOG
RANTOUL        PTCLDY    46  46  99 SE7       30.12S FOG
SPRINGFIELD    CLOUDY    52  50  93 SE12      30.06F FOG
TAYLORVILLE    FOG       49  49 100 SE12      30.09S VSB 1/2
$$

...REGIONAL REPORTS...


CITY           SKY/WX    TMP DP  RH WIND       PRES   REMARKS
CHICAGO O`HARE MOCLDY    41  32  70 CALM      30.12R
KANKAKEE       PTCLDY    41  39  92 CALM      30.13F
MOLINE         PTCLDY    53  46  77 CALM      30.00F
MOUNT STERLING CLOUDY    52  49  90 SE8       30.01F
MOUNT VERNON   PTCLDY    48  48 100 E5        30.11F FOG
PITTSFIELD     CLOUDY    53  51  90 SE6       30.03S
QUINCY         CLOUDY    54  50  86 SE8       29.99F
ROCKFORD       CLOUDY    49  41  74 SE9       30.09S
$$


CITY           SKY/WX    TMP DP  RH WIND       PRES   REMARKS
BURLINGTON     PTCLDY    57  51  80 S10       29.98F
CEDAR RAPIDS   CLOUDY    54  48  80 SE10      29.96S
DES MOINES     CLOUDY    59  47  64 SE10      29.89F
KIRKSVILLE     MOCLDY    54  49  83 S7        29.96S
OTTUMWA        PTCLDY    59  50  72 S14       29.94R
ST LOUIS       CLOUDY    58  53  84 SE9       30.04F
$$


CITY           SKY/WX    TMP DP  RH WIND       PRES   REMARKS
TERRE HAUTE    FOG       41  40  96 SE3       30.14F VSB 1/4
EVANSVILLE     FOG       45  43  93 NE3       30.15R VSB 1/4
INDIANAPOLIS   CLOUDY    46  44  93 SE5       30.15F FOG
LAFAYETTE      PTCLDY    42  42 100 E3        30.14S FOG
MADISON        PTCLDY    44  34  67 SE6       30.07S
MILWAUKEE      CLOUDY    38  31  76 CALM      30.14R
$$






USA.gov is the U.S. government's official web portal to all federal, state and local government web resources and services.